Starlink 11197

operational
NORAD ID: 60186 Int'l Des: 2024-124 Owner: SPXS Country: US Constellation: starlink
LEOCIRCULAR

关于 Starlink 11197

正在加载描述...

实时位置

正在加载3D地球...

即将过境

高度历史

Altitude vs Time

uPlot chart will show altitude changes over time

两行轨道根数

1 60186U 24124D 25258.12875540 -.00001076 00000-0 -40203-5 0 9998
2 60186 53.1590 306.4596 0001271 80.3930 279.7231 15.69713077 68969
Epoch: Sep 15, 2025 • Age: 14 hours

当前状态

高度 363.7 km
速度 7.70 km/s
星下点 45.07°N, 179.87°W
发射日期 Jul 3, 2024
运行时间 1.2 years
类型 internet

技术详情

分类 Payload
质量 960.00 kg
干质量 910.00 kg
总质量 960.00 kg
长度 0.30 m
直径 4.10 m
跨度 29.00 m
形状 Box + pan
制造商 SPXS
平台类型 Starlink V2MD
阶段状态 In Orbit
所有者/国家 SPXS/US

大型星座

Loading constellations...